AEROCUBE 8C (41853 NORAD) Tracking and Keplerian Element Data

This shows tracking and keplerian element data for the satellite.

Feedback or suggestion? Click here.




ElementValue
Catalog41853
NameAEROCUBE 8C
Epoch Orbit13329
Epoch Day112.20944695
Epoch Year2019
RAAN208.9054
Inclination97.9138
Eccentricity0.0009402
Argument of Perigee209.3465
Mean Anonmoly150.7229
Mean Motion14.96643211
Decay Rate6.89E-06
L11 41853U 16067F 19112.20944695 .00000689 00000-0 65675-4 0 9990
L22 41853 97.9138 208.9054 0009402 209.3465 150.7229 14.96643211133293

Live tracking and technical data element details for AEROCUBE 8C (NORAD 41853). AEROCUBE 8C can be tracked NOW for your location showing map with azimuth and elevation plus other details from your city location.

Track the satellite on the map from your city or location and see movement details for azimuth, elevation, latitude, longitude, range, height, and movement on the map or in text.







IsCatalogInMostPopularTable: catalog: 41853, numindb: 197
Update: records affected: 1



GetName: 41853 AEROCUBE 8C

Hit Count: updated at: Tue, 23 Apr 2019 06:00:26 GMT